Hourly Data Report for October 06, 2013

All times are specified in Local Standard Time (LST). Add 1 hour to adjust for Daylight Saving Time where and when it is observed.

ST LEONARD CS
NEW BRUNSWICK

47°09'28.050" N
67°49'55.014" W
245.00 m
810I001
71019
WIY

Download Data

Hourly Data (October 2013)
Hourly Data Report for October 6, 2013
Temp Definition
°C
Dew Point Temp Definition
°C
Rel Hum Definition
%
Wind Dir Definition
10's deg

Wind Spd Definition
km/h
Visibility Definition
km
Stn Press Definition
kPa
Hmdx Definition


Wind Chill Definition


Weather Definition


TIME
00:00 0.9 -0.9 88 30 6   99.24     LegendNANA
01:00 1.5 -0.6 86 33 13   99.29     LegendNANA
02:00 0.7 -1.3 86   0   99.29     LegendNANA
03:00 0.4 -1.4 88   0   99.32     LegendNANA
04:00 -0.2 -1.3 92 29 6   99.34   -2 LegendNANA
05:00 -1.0 -2.2 92 29 2   99.35   -2 LegendNANA
06:00 -1.7 -2.5 94 34 4   99.41   -3 LegendNANA
07:00 -1.7 -2.2 96 35 4   99.46   -3 LegendNANA
08:00 2.0 -0.7 82 34 2   99.48     LegendNANA
09:00 4.7 0.6 75 35 2   99.51     LegendNANA
10:00 7.5 1.4 65 33 2   99.56     LegendNANA
11:00 10.4 0.3 50 32 4   99.54     LegendNANA
12:00 11.6 1.1 48 23 6   99.50     LegendNANA
13:00 12.2 -0.7 41 22 7   99.45     LegendNANA
14:00 13.7 -1.3 35 23 2   99.42     LegendNANA
15:00 14.4 -0.8 35 19 2   99.37     LegendNANA
16:00 12.9 -1.0 38 19 6   99.37     LegendNANA
17:00 11.9 0.3 45 16 6   99.36     LegendNANA
18:00 10.3 1.0 52 18 6   99.39     LegendNANA
19:00 7.9 1.9 66 17 6   99.39     LegendNANA
20:00 7.5 1.7 67 13 6   99.36     LegendNANA
21:00 8.5 1.6 62 13 7   99.37     LegendNANA
22:00 8.7 1.5 61 14 11   99.33     LegendNANA
23:00 8.0 2.6 69 13 13   99.27     LegendNANA

Notes on Data Quality.

Legend

  • E = Estimated
  • M = Missing
  • NA = Not Available
  • ‡ = Partner data that is not subject to review by the National Climate Archives
Date modified: